TimeMDT,TemperatureF,Dew PointF,Humidity,Sea Level PressureIn,VisibilityMPH,Wind Direction,Wind SpeedMPH,Gust SpeedMPH,PrecipitationIn,Events,Conditions,WindDirDegrees,DateUTC
12:48 AM,60.1,37.0,42,29.76,-9999.0,Calm,Calm,-,N/A,,Unknown,0,2012-10-15 06:48:00
1:48 AM,60.1,34.0,38,29.74,-9999.0,West,5.8,-,N/A,,Unknown,260,2012-10-15 07:48:00
2:48 AM,60.1,34.0,38,29.74,-9999.0,West,6.9,-,N/A,,Unknown,260,2012-10-15 08:48:00
3:48 AM,57.9,34.0,41,29.73,-9999.0,West,6.9,-,N/A,,Unknown,270,2012-10-15 09:48:00
4:48 AM,53.1,34.0,48,29.73,-9999.0,West,8.1,-,N/A,,Unknown,280,2012-10-15 10:48:00
5:48 AM,46.9,34.0,61,29.74,-9999.0,NW,4.6,-,N/A,,Unknown,310,2012-10-15 11:48:00
6:48 AM,46.9,34.0,61,29.73,-9999.0,WNW,8.1,-,N/A,,Unknown,290,2012-10-15 12:48:00
7:48 AM,48.0,34.0,58,29.75,-9999.0,WNW,5.8,-,N/A,,Unknown,300,2012-10-15 13:48:00
8:48 AM,53.1,36.0,52,29.74,-9999.0,WNW,5.8,-,N/A,,Unknown,300,2012-10-15 14:48:00
9:48 AM,64.0,37.0,37,29.71,-9999.0,West,9.2,-,N/A,,Unknown,270,2012-10-15 15:48:00
10:48 AM,71.1,39.0,31,29.70,-9999.0,WNW,18.4,29.9,N/A,,Unknown,290,2012-10-15 16:48:00
11:48 AM,71.1,41.0,34,29.69,-9999.0,WNW,18.4,-,N/A,,Unknown,290,2012-10-15 17:48:00
12:48 PM,66.9,42.1,40,29.70,-9999.0,West,18.4,25.3,N/A,,Unknown,260,2012-10-15 18:48:00
1:48 PM,64.9,44.1,47,29.70,-9999.0,West,17.3,24.2,N/A,,Unknown,270,2012-10-15 19:48:00
2:48 PM,64.9,44.1,47,29.69,-9999.0,West,17.3,23.0,N/A,,Unknown,270,2012-10-15 20:48:00
3:48 PM,59.0,51.1,75,29.72,-9999.0,WSW,10.4,-,0.01,,Unknown,240,2012-10-15 21:48:00
4:48 PM,59.0,50.0,72,29.73,-9999.0,WSW,9.2,-,N/A,,Unknown,250,2012-10-15 22:48:00
5:48 PM,59.0,50.0,72,29.74,-9999.0,WSW,6.9,-,N/A,,Unknown,240,2012-10-15 23:48:00
6:48 PM,57.9,48.0,70,29.73,-9999.0,WSW,10.4,-,N/A,,Unknown,240,2012-10-16 00:48:00
7:48 PM,55.0,46.9,74,29.75,-9999.0,West,6.9,-,N/A,,Unknown,280,2012-10-16 01:48:00
8:48 PM,55.9,46.0,69,29.73,-9999.0,West,9.2,-,N/A,,Unknown,270,2012-10-16 02:48:00
9:48 PM,52.0,45.0,77,29.72,-9999.0,WNW,6.9,-,N/A,,Unknown,300,2012-10-16 03:48:00
10:48 PM,46.0,41.0,83,29.72,-9999.0,WNW,4.6,-,N/A,,Unknown,290,2012-10-16 04:48:00
11:48 PM,45.0,41.0,86,29.72,-9999.0,WNW,6.9,-,N/A,,Unknown,290,2012-10-16 05:48:00